Time,TemperatureF,DewpointF,PressureIn,WindDirection,WindDirectionDegrees,WindSpeedMPH,WindSpeedGustMPH,Humidity,HourlyPrecipIn,Conditions,Clouds,dailyrainin,SoftwareType,DateUTC
2013-07-06 00:03:00,59.0,52.0,20.29,SSW,203,0.0,3.0,78,0.00,,,0.00,weatherlink.com 1.10,2013-07-06 06:03:00,
2013-07-06 00:18:00,58.0,52.0,20.28,SSW,203,0.0,0.0,80,0.00,,,0.00,weatherlink.com 1.10,2013-07-06 06:18:00,
2013-07-06 00:34:00,56.8,51.0,20.29,SSW,204,0.0,0.0,82,0.00,,,0.00,weatherlink.com 1.10,2013-07-06 06:34:00,
2013-07-06 00:49:00,55.9,51.0,20.29,SSW,204,0.0,0.0,84,0.00,,,0.00,weatherlink.com 1.10,2013-07-06 06:49:00,
2013-07-06 01:04:00,55.4,51.0,20.31,SSW,204,0.0,0.0,85,0.00,,,0.00,weatherlink.com 1.10,2013-07-06 07:04:00,
2013-07-06 01:19:00,55.3,51.0,20.32,SSW,204,1.0,2.0,85,0.00,,,0.00,weatherlink.com 1.10,2013-07-06 07:19:00,
2013-07-06 01:34:00,55.4,51.0,20.32,SSW,204,1.0,3.0,84,0.00,,,0.00,weatherlink.com 1.10,2013-07-06 07:34:00,
2013-07-06 01:49:00,55.6,51.0,20.32,SSW,204,2.0,3.0,84,0.00,,,0.00,weatherlink.com 1.10,2013-07-06 07:49:00,
2013-07-06 02:04:00,55.8,51.0,20.32,SSW,203,2.0,3.0,84,0.00,,,0.00,weatherlink.com 1.10,2013-07-06 08:04:00,
2013-07-06 02:19:00,56.2,51.0,20.31,SSW,203,0.0,3.0,83,0.00,,,0.00,weatherlink.com 1.10,2013-07-06 08:19:00,
2013-07-06 02:34:00,56.7,51.0,20.30,SSW,203,0.0,3.0,82,0.00,,,0.00,weatherlink.com 1.10,2013-07-06 08:34:00,
2013-07-06 02:49:00,57.1,52.0,20.30,SSW,204,3.0,5.0,82,0.00,,,0.00,weatherlink.com 1.10,2013-07-06 08:49:00,
2013-07-06 03:04:00,56.8,51.0,20.31,SSW,204,0.0,5.0,81,0.00,,,0.00,weatherlink.com 1.10,2013-07-06 09:04:00,
2013-07-06 03:19:00,56.4,51.0,20.30,SSW,204,2.0,4.0,83,0.00,,,0.00,weatherlink.com 1.10,2013-07-06 09:19:00,
2013-07-06 03:34:00,56.3,51.0,20.30,SSW,204,0.0,2.0,83,0.00,,,0.00,weatherlink.com 1.10,2013-07-06 09:34:00,
2013-07-06 03:49:00,56.6,51.0,20.30,SSW,203,0.0,3.0,82,0.00,,,0.00,weatherlink.com 1.10,2013-07-06 09:49:00,
2013-07-06 04:04:00,56.6,51.0,20.30,SSW,204,0.0,2.0,82,0.00,,,0.00,weatherlink.com 1.10,2013-07-06 10:04:00,
2013-07-06 04:19:00,56.9,51.0,20.30,SSW,203,0.0,2.0,81,0.00,,,0.00,weatherlink.com 1.10,2013-07-06 10:19:00,
2013-07-06 04:34:00,56.8,51.0,20.30,SSW,204,0.0,2.0,81,0.00,,,0.00,weatherlink.com 1.10,2013-07-06 10:34:00,
2013-07-06 04:49:00,56.6,51.0,20.30,SSW,204,0.0,1.0,81,0.00,,,0.00,weatherlink.com 1.10,2013-07-06 10:49:00,
2013-07-06 05:04:00,55.8,50.0,20.30,SSW,204,0.0,2.0,82,0.00,,,0.00,weatherlink.com 1.10,2013-07-06 11:04:00,
2013-07-06 05:19:00,55.7,50.0,20.30,SSW,204,0.0,5.0,82,0.00,,,0.00,weatherlink.com 1.10,2013-07-06 11:19:00,
2013-07-06 05:34:00,55.7,50.0,20.30,SSW,203,2.0,4.0,81,0.00,,,0.00,weatherlink.com 1.10,2013-07-06 11:34:00,
2013-07-06 05:49:00,55.9,50.0,20.30,SSW,203,1.0,3.0,81,0.00,,,0.00,weatherlink.com 1.10,2013-07-06 11:49:00,
2013-07-06 06:04:00,55.8,50.0,20.30,SSW,203,0.0,1.0,81,0.00,,,0.00,weatherlink.com 1.10,2013-07-06 12:04:00,
2013-07-06 06:19:00,55.9,50.0,20.31,SSW,204,0.0,3.0,81,0.00,,,0.00,weatherlink.com 1.10,2013-07-06 12:19:00,
2013-07-06 06:34:00,56.5,51.0,20.31,SSW,204,0.0,3.0,81,0.00,,,0.00,weatherlink.com 1.10,2013-07-06 12:34:00,
2013-07-06 06:49:00,57.3,52.0,20.32,SSW,203,0.0,0.0,81,0.00,,,0.00,weatherlink.com 1.10,2013-07-06 12:49:00,
2013-07-06 07:04:00,59.0,52.0,20.32,SSW,204,0.0,1.0,77,0.00,,,0.00,weatherlink.com 1.10,2013-07-06 13:04:00,
2013-07-06 07:19:00,59.5,53.0,20.31,SSW,203,0.0,3.0,79,0.00,,,0.00,weatherlink.com 1.10,2013-07-06 13:19:00,
2013-07-06 07:34:00,60.1,53.0,20.31,SSW,203,0.0,0.0,77,0.00,,,0.00,weatherlink.com 1.10,2013-07-06 13:34:00,
2013-07-06 07:49:00,61.1,54.0,20.31,SSW,203,4.0,4.0,76,0.00,,,0.00,weatherlink.com 1.10,2013-07-06 13:49:00,
2013-07-06 08:04:00,61.2,53.0,20.31,SSW,204,0.0,3.0,75,0.00,,,0.00,weatherlink.com 1.10,2013-07-06 14:04:00,
2013-07-06 08:19:00,62.6,53.0,20.31,SSW,204,0.0,3.0,72,0.00,,,0.00,weatherlink.com 1.10,2013-07-06 14:19:00,
2013-07-06 08:34:00,64.0,54.0,20.31,SSW,203,0.0,4.0,70,0.00,,,0.00,weatherlink.com 1.10,2013-07-06 14:34:00,
2013-07-06 08:49:00,64.6,54.0,20.31,SSW,204,0.0,3.0,69,0.00,,,0.00,weatherlink.com 1.10,2013-07-06 14:49:00,
2013-07-06 09:04:00,64.8,53.0,20.31,SSW,204,0.0,4.0,66,0.00,,,0.00,weatherlink.com 1.10,2013-07-06 15:04:00,
2013-07-06 09:19:00,65.9,55.0,20.31,SSW,203,1.0,4.0,67,0.00,,,0.00,weatherlink.com 1.10,2013-07-06 15:19:00,
2013-07-06 09:34:00,66.7,55.0,20.31,SSW,203,1.0,5.0,66,0.00,,,0.00,weatherlink.com 1.10,2013-07-06 15:34:00,
2013-07-06 09:49:00,68.3,54.0,20.31,SSW,208,4.0,7.0,61,0.00,,,0.00,weatherlink.com 1.10,2013-07-06 15:49:00,
2013-07-06 10:04:00,69.1,54.0,20.30,SSW,209,0.0,4.0,58,0.00,,,0.00,weatherlink.com 1.10,2013-07-06 16:04:00,
2013-07-06 10:20:00,70.0,53.0,20.30,SSW,209,0.0,4.0,56,0.00,,,0.00,weatherlink.com 1.10,2013-07-06 16:20:00,
2013-07-06 10:35:00,70.8,54.0,20.30,SW,217,4.0,7.0,55,0.00,,,0.00,weatherlink.com 1.10,2013-07-06 16:35:00,
2013-07-06 11:05:00,72.9,54.0,20.31,West,270,0.0,7.0,52,0.00,,,0.00,weatherlink.com 1.10,2013-07-06 17:05:00,
2013-07-06 11:20:00,73.4,53.0,20.31,West,276,0.0,6.0,49,0.00,,,0.00,weatherlink.com 1.10,2013-07-06 17:20:00,
2013-07-06 11:35:00,74.4,55.0,20.30,NW,308,4.0,6.0,51,0.00,,,0.00,weatherlink.com 1.10,2013-07-06 17:35:00,
2013-07-06 11:50:00,75.5,55.0,20.29,NW,310,0.0,6.0,49,0.00,,,0.00,weatherlink.com 1.10,2013-07-06 17:50:00,
2013-07-06 12:05:00,77.0,55.0,20.29,NNW,333,0.0,8.0,47,0.00,,,0.00,weatherlink.com 1.10,2013-07-06 18:05:00,
2013-07-06 12:20:00,78.1,56.0,20.28,North,360,5.0,8.0,47,0.00,,,0.00,weatherlink.com 1.10,2013-07-06 18:20:00,
2013-07-06 12:35:00,78.5,55.0,20.26,NNW,342,1.0,8.0,44,0.00,,,0.00,weatherlink.com 1.10,2013-07-06 18:35:00,
2013-07-06 13:05:00,79.9,54.0,20.26,NW,323,0.0,9.0,41,0.00,,,0.00,weatherlink.com 1.10,2013-07-06 19:05:00,
2013-07-06 13:20:00,81.1,53.0,20.25,NNW,336,0.0,10.0,38,0.00,,,0.00,weatherlink.com 1.10,2013-07-06 19:20:00,
2013-07-06 13:50:00,82.8,52.0,20.24,West,260,1.0,9.0,35,0.00,,,0.00,weatherlink.com 1.10,2013-07-06 19:50:00,
2013-07-06 14:05:00,84.5,52.0,20.25,WNW,291,5.0,6.0,33,0.00,,,0.00,weatherlink.com 1.10,2013-07-06 20:05:00,
2013-07-06 15:05:00,75.8,48.0,20.28,ENE,70,4.0,16.0,38,0.00,,,0.00,weatherlink.com 1.10,2013-07-06 21:05:00,
2013-07-06 15:35:00,67.9,53.0,20.25,ESE,103,8.0,18.0,60,0.02,,,0.02,weatherlink.com 1.10,2013-07-06 21:35:00,
2013-07-06 15:50:00,72.1,51.0,20.25,ENE,74,8.0,21.0,48,0.02,,,0.02,weatherlink.com 1.10,2013-07-06 21:50:00,
2013-07-06 16:20:00,79.2,48.0,20.24,East,94,7.0,18.0,33,0.02,,,0.02,weatherlink.com 1.10,2013-07-06 22:20:00,
2013-07-06 16:50:00,75.0,48.0,20.25,East,90,5.0,17.0,39,0.00,,,0.02,weatherlink.com 1.10,2013-07-06 22:50:00,
2013-07-06 17:05:00,74.1,49.0,20.26,East,94,5.0,17.0,41,0.00,,,0.02,weatherlink.com 1.10,2013-07-06 23:05:00,
2013-07-06 17:21:00,72.8,51.0,20.28,North,360,6.0,13.0,47,0.00,,,0.02,weatherlink.com 1.10,2013-07-06 23:21:00,
2013-07-06 17:50:00,72.2,50.0,20.27,NE,46,3.0,5.0,45,0.00,,,0.02,weatherlink.com 1.10,2013-07-06 23:50:00,
2013-07-06 18:05:00,72.8,49.0,20.27,ESE,113,0.0,11.0,43,0.00,,,0.02,weatherlink.com 1.10,2013-07-07 00:05:00,
2013-07-06 18:35:00,72.6,48.0,20.28,ENE,74,0.0,7.0,42,0.00,,,0.02,weatherlink.com 1.10,2013-07-07 00:35:00,
2013-07-06 19:06:00,72.0,48.0,20.27,ESE,117,1.0,8.0,43,0.00,,,0.02,weatherlink.com 1.10,2013-07-07 01:06:00,
2013-07-06 19:21:00,71.6,50.0,20.27,SSE,157,1.0,8.0,46,0.00,,,0.02,weatherlink.com 1.10,2013-07-07 01:21:00,
2013-07-06 19:36:00,71.3,49.0,20.27,South,186,10.0,13.0,46,0.00,,,0.02,weatherlink.com 1.10,2013-07-07 01:36:00,
2013-07-06 20:06:00,70.9,49.0,20.29,SSE,160,8.0,11.0,46,0.00,,,0.02,weatherlink.com 1.10,2013-07-07 02:06:00,
2013-07-06 20:36:00,69.8,51.0,20.31,South,170,7.0,13.0,51,0.00,,,0.02,weatherlink.com 1.10,2013-07-07 02:36:00,
2013-07-06 21:21:00,67.9,52.0,20.31,SSE,153,3.0,4.0,58,0.00,,,0.02,weatherlink.com 1.10,2013-07-07 03:21:00,
2013-07-06 21:51:00,66.8,50.0,20.34,SSE,154,0.0,4.0,56,0.00,,,0.02,weatherlink.com 1.10,2013-07-07 03:51:00,
2013-07-06 22:06:00,66.6,53.0,20.34,SSE,154,0.0,2.0,61,0.00,,,0.02,weatherlink.com 1.10,2013-07-07 04:06:00,
2013-07-06 22:21:00,66.0,52.0,20.35,SSE,153,0.0,2.0,60,0.00,,,0.02,weatherlink.com 1.10,2013-07-07 04:21:00,
2013-07-06 22:36:00,66.0,52.0,20.35,SSE,154,0.0,2.0,60,0.00,,,0.02,weatherlink.com 1.10,2013-07-07 04:36:00,
2013-07-06 22:51:00,65.5,52.0,20.36,SSE,153,0.0,1.0,62,0.00,,,0.02,weatherlink.com 1.10,2013-07-07 04:51:00,
2013-07-06 23:06:00,65.6,51.0,20.36,SSE,154,1.0,4.0,60,0.00,,,0.02,weatherlink.com 1.10,2013-07-07 05:06:00,
2013-07-06 23:21:00,65.9,51.0,20.37,SSE,153,0.0,1.0,60,0.00,,,0.02,weatherlink.com 1.10,2013-07-07 05:21:00,
2013-07-06 23:36:00,65.5,51.0,20.37,SSE,168,6.0,9.0,59,0.00,,,0.02,weatherlink.com 1.10,2013-07-07 05:36:00,
2013-07-06 23:51:00,65.8,50.0,20.37,South,171,7.0,10.0,58,0.00,,,0.02,weatherlink.com 1.10,2013-07-07 05:51:00,